Home   Weather   Maastricht   Past weeks

Flag for Netherlands Past Weather in Maastricht, Netherlands — Yesterday and Last 2 Weeks

Now
46 °F

Light rain. Overcast.


Feels Like: 40 °F
Forecast: 43 / 49 °F
Wind: 15 mph from Southwest

Location: Maastricht Airport Zuid Limburg

Current Time: Dec 8, 2016 at 11:03:56 pm

Latest Report: Dec 8, 2016 at 9:55 pm


Visibility: N/A

Pressure: 30.36 "Hg

Humidity: 71%

Dew Point: 37 °F

Location of MaastrichtLocation

Past Weather in Maastricht — Graph

°F

Maastricht Temperature Yesterday

Maximum temperature yesterday: 50 °F (at 1:55 pm)
Minimum temperature yesterday: 37 °F (at 12:25 am)
Average temperature yesterday: 44 °F

High & Low Weather Summary for the Past Weeks

 TemperatureHumidityPressure
High52 °F (Nov 24, 11:55 am)100% (Nov 27, 12:25 am)30.54 "Hg (Nov 27, 12:25 am)
Low23 °F (Nov 30, 1:55 am)52% (Nov 30, 2:55 pm)30.07 "Hg (Nov 23, 9:25 pm)
Average38 °F84%30.29 "Hg
* Reported Nov 23 9:25 pm — Dec 8 9:55 pm, Maastricht, Weather by CustomWeather, © 2016

Note: Actual official high and low records may vary slightly from our data, if they occured in-between our weather recording intervals... More about our weather records

Advertising

Maastricht Weather History for the Previous 24 Hours

Scroll right to see more
 ConditionsComfort  
Time TempWeatherWind HumidityBarometerVisibility
9:55 pm
Thu, Dec 8
46 °FLight rain. Overcast.15 mph71%30.36 "HgN/A
9:25 pm46 °FOvercast.14 mph71%30.36 "HgN/A
8:55 pm45 °FPassing clouds.14 mph76%30.36 "HgN/A
8:25 pm45 °FOvercast.15 mph76%30.36 "HgN/A
7:55 pm45 °FClear.17 mph76%30.36 "HgN/A
7:25 pm45 °FClear.15 mph71%30.33 "HgN/A
6:55 pm45 °FPassing clouds.13 mph71%30.36 "HgN/A
6:25 pm45 °FQuite cool.16 mph71%30.33 "HgN/A
5:55 pm45 °FQuite cool.15 mph71%30.33 "HgN/A
5:25 pm43 °FQuite cool.16 mph71%30.33 "HgN/A
4:55 pm43 °FQuite cool.16 mph71%30.33 "HgN/A
4:25 pm45 °FQuite cool.12 mph66%30.33 "HgN/A
3:55 pm45 °FQuite cool.12 mph66%30.36 "HgN/A
3:25 pm46 °FClear.14 mph66%30.36 "HgN/A
2:55 pm46 °FClear.18 mph62%30.33 "HgN/A
2:25 pm46 °FClear.15 mph66%30.36 "HgN/A
1:55 pm46 °FClear.15 mph62%30.36 "HgN/A
1:25 pm48 °FClear.15 mph58%30.36 "HgN/A
12:55 pm48 °FClear.16 mph58%30.36 "HgN/A
12:25 pm45 °FClear.16 mph61%30.39 "HgN/A
11:55 am46 °FClear.14 mph57%30.39 "HgN/A
11:25 am45 °FClear.15 mph61%30.39 "HgN/A
10:55 am46 °FClear.15 mph57%30.39 "HgN/A
10:25 am45 °FClear.12 mph61%30.42 "HgN/A
9:55 am43 °FClear.13 mph66%30.42 "HgN/A
9:25 am43 °FClear.12 mph61%30.42 "HgN/A
8:55 am41 °FClear.14 mph66%30.42 "HgN/A
8:25 am41 °FClear.14 mph66%30.42 "HgN/A
7:55 am43 °FClear.15 mph61%30.42 "HgN/A
7:25 am43 °FClear.17 mph61%30.39 "HgN/A
6:55 am43 °FClear.14 mph61%30.39 "HgN/A
6:25 am43 °FClear.15 mph66%30.39 "HgN/A
5:55 am41 °FClear.14 mph70%30.39 "HgN/A
5:25 am41 °FQuite cool.13 mph76%30.39 "HgN/A
4:55 am43 °FQuite cool.14 mph71%30.39 "HgN/A
4:25 am45 °FClear.17 mph66%30.39 "HgN/A
3:55 am45 °FQuite cool.18 mph66%30.39 "HgN/A
3:25 am45 °FClear.18 mph66%30.42 "HgN/A
2:25 am45 °FClear.18 mph66%30.42 "HgN/A
1:55 am45 °FClear.20 mph66%30.42 "HgN/A
1:25 am45 °FClear.20 mph66%30.42 "HgN/A
12:55 am45 °FClear.21 mph66%30.42 "HgN/A
12:25 am46 °FClear.20 mph62%30.45 "HgN/A
11:55 pm
Wed, Dec 7
45 °FQuite cool.17 mph66%30.45 "HgN/A
11:25 pm45 °FClear.16 mph66%30.45 "HgN/A
Weather by CustomWeather, © 2016

See weather overviewHow to use our weather pages